User: anonymous   Login
Location: D�rnast
(49.6426°N, 11.9755°E)
Time: 02:55:41
(UTC+00:00)
Language:

CZ-4B R/B - Orbit

View from above orbital plane
View from above orbital plane
View from above satellite
View from above satellite

Ground track
Ground track

The orbit data is extracted from the following two-line orbital elements,

1 29093U 06015B   21106.76965652  .00003693  00000-0  68303-4 0  9996
2 29093  97.6348 295.6246 0048976 303.1678  56.4878 15.48460430833487
Epoch (UTC): 16 April 2021 18:28:18
Eccentricity: 0.0048976
inclination: 97.6348°
perigee height: 388 km
apogee height: 454 km
right ascension of ascending node: 295.6246°
argument of perigee: 303.1678°
revolutions per day: 15.48460430
mean anomaly at epoch: 56.4878°
orbit number at epoch: 83348

The dashed part of the orbit path shows where the satellite is in the earth's shadow,  

DLR